Location: Lac Lasalle
(46.0398°N, 74.1576°W)
Time: 14:26:21
(UTC-05:00)

AO-73 - Pass Details

Date: 15 December 2019
Orbit: 582 x 664 km, 97.6° (Epoch: 28 January)

Event Time Altitude Azimuth Distance (km) Brightness Sun altitude
Rises 18:39:37 0° 209° (SSW) 2,958 ? -24.6°
Reaches altitude 10° 18:42:37 10° 231° (SW) 2,039 ? -25.1°
Maximum altitude 18:45:23 16° 270° (W) 1,660 ? -25.6°
Drops below altitude 10° 18:48:07 10° 308° (NW) 2,020 ? -26.1°
Sets 18:51:05 0° 330° (NNW) 2,915 ? -26.6°
